Погода в Пудоже

Россия / Республика Карелия     61°48′21″N   36°31′58″E
темп.,
°C
ветер,
м/с
пор.,
м/с
влажн.,
%
обл.,
%
осадки,
мм/ч
давл.,
гПа
погр.,
м
1 августа, вс
вс100:00+13юз26975 0.1 999124
03:00+13юз269922 0.1 1001151
06:00+14ююз25969 0.1 1002207
09:00+19юз36684 0.1 1003648
12:00+22юз4655100 0.0 10031413
15:00+23юз464991 0.1 10021849
18:00+15ююз3897100 3.2 1002430
21:00+15ююз3898100 5.6 1001316
2 августа, пн
пн200:00+14юз289812 0.0 1002220
03:00+13ю259828 0.0 1002111
06:00+15юз3898100 0.0 1004508
09:00+15юз3894100 0.1 1005780
12:00+20юз4659100 0.1 10051202
15:00+22юз4553100 0.1 10041421
18:00+18юз3676100 0.0 1004375
21:00+15ссв2597100 0.6 1001128
3 августа, вт
вт300:00+16всв51594100 0.4 998620
03:00+15вюв31196100 1.4 995491
06:00+18ю41096100 0.5 993749
09:00+16зюз61197100 1.1 993809
12:00+17зюз61285100 0.8 9981131
15:00+22зюз610471 1.3 9991880
18:00+20юз59505 0.1 10011661
21:00+17юз410695 0.1 1002672
4 августа, ср
ср400:00+14юз410821 0.0 1003589
03:00+13зюз598288 0.1 1005770
06:00+13юз5975100 0.1 10061227
09:00+12з4986100 0.4 10081033
12:00+15з586371 0.8 10101574
15:00+17зсз59519 0.9 10121779
18:00+15ссз47512 0.0 10151044
21:00+9всв11784 0.0 101711
5 августа, чт
чт500:00+7вюв228468 0.0 101827
03:00+9юв137391 0.0 101976
06:00+11ююв2566100 0.0 1019160
09:00+15ююв244898 0.0 1019530
12:00+17ю3544100 0.0 1019995
15:00+19ююз454493 0.0 10191949
18:00+17юз1355100 0.0 1018357
21:00+14вюв116495 0.0 101923